Tracking 19638 objects as of 19-May-2019
HD Live streaming from Space Station
objects crossing your sky now

DMSP 5D-2 F10 (USA 68)

Track DMSP 5D-2 F10 (USA 68) now!
10-day predictions
DMSP 5D-2 F10 (USA 68) is classified as:


NORAD ID: 20978
Int'l Code: 1990-105A
Perigee: 719.1 km
Apogee: 825.1 km
Inclination: 98.7 °
Period: 100.1 minutes
Semi major axis: 7143 km
RCS: 4.2059 m2 (large)
Launch date: December 1, 1990
Source: United States (US)
Launch site: AIR FORCE WESTERN TEST RANGE (AFWTR)
aabbcc
Your satellite tracking list
Your tracking list is empty




NASA's NSSDC Master Catalog

Two Line Element Set (TLE):
1 20978U 90105A   19139.50843648  .00000002  00000-0  15572-4 0  9998
2 20978  98.7271 116.1016 0074167  40.7308 319.9391 14.38048029490967
Source of the keplerian elements: AFSPC